User: anonymous   Login
Location: Unspecified
(0.0000°N, 0.0000°E)
Time: 06:49:16
(UTC+00:00)
Language:

Explorer 29 - Orbit

View from above orbital plane
View from above orbital plane
View from above satellite
View from above satellite

Ground track
Ground track

The orbit data is extracted from the following two-line orbital elements,

1  1726U 65089A   17087.36514062 -.00000082 +00000-0 -46744-4 0  9995
2  1726 059.3824 039.4037 0715423 178.5463 356.0796 11.97041751246454
Epoch (UTC): 28 March 2017 08:45:48
Eccentricity: 0.0715423
inclination: 59.3824°
perigee height: 1116 km
apogee height: 2271 km
right ascension of ascending node: 39.4037°
argument of perigee: 178.5463°
revolutions per day: 11.97041751
mean anomaly at epoch: 356.0796°
orbit number at epoch: 24645

The dashed part of the orbit path shows where the satellite is in the earth's shadow,  

DLR